Regional Weather Roundup
Issued by NWS New Orleans/Baton Rouge, LA

Home | Current Version | Previous Version | Text Only | Print | Product List | Glossary Off
Versions: 1 2 3 4 5 6 7 8 9 10 11 12 13 14 15 16 17 18 19 20 21 22 23 24 25 26 27 28 29 30 31 32 33 34 35 36 37 38 39 40 41 42 43 44 45 46 47 48 49 50

632
ASUS44 KLIX 012105
RWRLIX
NEW ORLEANS REGIONAL WEATHER ROUNDUP
NATIONAL WEATHER SERVICE NEW ORLEANS LA
400 PM CDT MON SEP 01 2014

NOTE: "FAIR" INDICATES FEW OR NO CLOUDS BELOW 12,000 FEET WITH NO
      SIGNIFICANT WEATHER AND/OR OBSTRUCTIONS TO VISIBILITY.
      SKY/WX - SKY CONDITION AND SIGNIFICANT WEATHER.
      TMP - AIR TEMPERATURE.     DP    - DEWPOINT TEMPERATURE.
      RH  - RELATIVE HUMIDITY.   PRES  - PRESSURE.
      HI  - HEAT INDEX.          WCI   - WIND CHILL INDEX.

*  THESE STATIONS ARE NOT NWS OR FAA STATIONS AND ARE NOT UNDER
   NWS QUALITY CONTROL.

LAZ038-040-048-061>063-065>067-069-012200-
SOUTHEAST LOUISIANA

CITY           SKY/WX    TMP DP  RH WIND       PRES   REMARKS
N.O. AUDUBON   NOT AVBL
N.O. INTL ARPT PTSUNNY   83  74  74 E15       30.01S THUNDER
N.O. LAKEFRONT LGT RAIN  78  74  87 S7        30.03R
N.O. DOWNTOWN* MOCLDY    79  72  78 CALM      30.02F
SLIDELL        PTSUNNY   86  76  71 SE12      30.01F HX  96
BATON ROUGE    CLOUDY    81  73  76 SW7       30.00R
BOOTHVILLE     PTSUNNY   89  77  67 S12       30.02F HX 101
BELLE CHASSE   TSTM      84  76  76 SE10G21   30.01S
BOGALUSA*        N/A     87  74  65 SE5       30.03F HX  95
GALLIANO*      NOT AVBL
NEW ROADS*     TSTM      80  73  81 SE13G24   30.00R
GONZALES*      CLOUDY    81  76  84 SW5       29.99F
HAMMOND*       PTSUNNY   90  70  51 SE14      30.01F HX  95
HOUMA*         MOSUNNY   86  75  70 S8        30.00F HX  95
PORT FOURCHON* PTCLDY    88  77  70 S13       30.02S HX 100

$$

MSZ070-080>082-012200-
SOUTHERN MISSISSIPPI

CITY           SKY/WX    TMP DP  RH WIND       PRES   REMARKS
MCCOMB         CLOUDY    86  73  65 S12       30.01F
GULFPORT       PTSUNNY   87  76  69 SE9       30.01F HX  97
BILOXI         MOSUNNY   87  76  68 SE12      30.03F HX  97
PASCAGOULA     MOSUNNY   89  73  59 S16       30.02F HX  97
STENNIS ARPT*  MOSUNNY  N/A N/A N/A SE12G17   30.02F

$$

COASTAL OBSERVATIONS
LAKE AND NEARSHORE STATIONS

STATION/POSITION TIME  TEMP    WIND        PRES    WAVE
                       AIR SEA DIR/SP/G            HT/PER
                 (UTC) (F)     (DEG/KT/KT) (MB)    (FT/S)
PASCAGOULA       2100   88     130/ 12/ 15 1016.6
WAVELAND YACHT   2100   85     170/ 15/ 18 1016.0
GRAND ISLE       2100   86 84  150/  7/ 13 1017.0
SOUTHWEST PASS   2100   87 91  140/  8/ 12 1016.8
NEW CANAL        2100   78 82  160/  2/  4 1017.0
SHELL BEACH      2100   80 81  240/  8/ 10 1016.4

OFFSHORE STATIONS

STATION/POSITION TIME  TEMP    WIND        PRES    WAVE
                       AIR SEA DIR/SP/G            HT/PER
                 (UTC) (F)     (DEG/KT/KT) (MB)    (FT/S)
64 S DAUPHIN ISL 2000   84     150/ 12       N/A

$$




USA.gov is the U.S. government's official web portal to all federal, state and local government web resources and services.